Location: Chenango Forks
(42.2242°N, 75.8278°W)
Time: 16:17:17
(UTC-04:00)

Daily predictions for brighter satellites

Satellite Brightness Start Highest point End
(mag) Time Altitude Azimuth Time Altitude Azimuth Time Altitude Azimuth
ATLAS CENTAUR R/B 4.1 19:06:23 10° WNW 19:09:37 22° WSW 19:12:39 10° SSW
Cosmos 1072 Rocket 4.5 19:04:15 10° S 19:10:14 61° E 19:16:15 10° NNE
Cosmos 2333 Rocket 4.2 19:06:21 10° WSW 19:11:28 32° NW 19:16:37 10° N
Cosmos 1674 4.4 19:10:03 10° NE 19:12:21 15° ENE 19:14:39 10° ESE
Cosmos 1076 Rocket 3.6 19:09:19 10° N 19:13:35 55° E 19:17:51 10° SSE
Spot 2 Rocket 4.2 19:10:14 10° SE 19:14:38 31° ENE 19:19:03 10° N
ATLAS 5 CENTAUR R/B 1.8 19:13:41 10° SSW 19:18:27 84° SE 19:23:39 10° NE
MSX 4.2 19:13:02 10° S 19:18:46 73° WSW 19:24:32 10° NNW
Cosmos 1766 Rocket 3.7 19:14:30 10° N 19:18:47 51° E 19:23:00 10° SSE
Abrixas 2.7 19:18:19 10° SW 19:21:15 51° SSE 19:24:11 10° ENE
Cosmos-2242 3.4 19:19:47 10° SSE 19:23:52 40° E 19:28:00 10° NNE
Cosmos 2237 Rocket 4.3 19:22:11 10° WSW 19:27:04 29° NW 19:31:58 10° N
CZ-2C R/B 4.5 19:23:55 10° SSW 19:28:17 32° W 19:32:35 10° NNW
SJ-6B 2.9 19:24:28 10° SSE 19:28:26 65° ENE 19:32:30 10° N
USA 215 3.9 19:24:37 10° ENE 19:30:25 33° SE 19:36:12 10° S
HJ-1C 4.1 19:28:17 10° SE 19:31:20 33° ENE 19:34:25 10° N
ATLAS CENTAUR R/B 3.6 19:26:38 10° SW 19:31:30 84° SE 19:47:28 10° NE
FREGAT/IRIS 2.7 19:30:19 10° SSE 19:33:20 53° ENE 19:36:22 10° N
Cosmos 1346 3.6 19:30:47 10° N 19:33:34 35° ENE 19:36:20 10° SE
Cosmos 1544 3.6 19:30:51 10° SSE 19:34:19 38° E 19:37:49 10° NNE
Cosmos 1484 Rocket 3.7 19:31:34 10° S 19:35:19 52° W 19:39:11 10° NNW
TELKOM 3 3.5 19:34:05 10° NW 19:37:03 51° NNE 19:38:26 20° E
SAR-Lupe-4 3.7 19:34:11 10° S 19:37:45 79° WSW 19:41:21 10° NNW
Cosmos 724 4.3 19:32:10 10° SSW 19:38:04 81° ESE 19:44:12 10° NE
METEOR-M 4.2 19:32:59 10° SSE 19:38:13 59° ENE 19:43:30 10° N
OAO 3 Rocket 4.4 19:38:54 10° WSW 19:43:06 32° S 19:46:49 13° SE
Cosmos 1758 3.3 19:40:17 10° S 19:44:22 81° E 19:48:30 10° N
Cosmos 1464 Rocket 4.2 19:39:03 10° S 19:45:17 79° W 19:51:29 10° N
Cosmos 2034 Rocket 4.0 19:39:12 10° S 19:45:28 79° E 19:51:49 10° N
SL-16 R/B 3.6 19:43:58 10° SW 19:49:17 41° WNW 19:54:40 10° NNE
Cosmos 1408 Rocket 3.9 19:45:19 10° NNW 19:49:39 67° W 19:53:54 10° S
CZ-4B DEB 3.9 19:49:16 22° E 19:50:09 25° ENE 19:52:54 10° NNE
Cosmos 1500 Rocket 4.0 19:46:38 10° N 19:50:51 40° ENE 19:55:03 10° SSE
Cosmos 1842 Rocket 3.9 19:48:24 10° SSE 19:52:26 39° E 19:56:30 10° NNE
Meteor 1-21 Rocket 4.1 19:49:42 10° N 19:55:17 86° E 20:00:49 10° S
FENGYUN 3A 4.0 19:51:42 10° SE 19:56:46 44° ENE 20:01:52 10° N
Spot 1 4.2 19:55:33 10° SSE 20:00:14 86° W 20:04:40 10° NNW
Helios 1A 2.9 19:56:28 10° SSE 20:00:39 72° ENE 20:04:52 10° N
Meteor 1-28 Rocket 4.2 20:03:52 10° N 20:07:28 47° WNW 20:11:02 10° SSW
CZ-2D R/B 3.8 20:06:28 30° ESE 20:07:42 39° ENE 20:11:20 10° N
Meteor 1-29 2.8 20:05:41 10° NNE 20:09:12 70° ESE 20:12:39 10° S
GPS 2-04 Rocket1 3.6 20:11:43 10° SW 20:14:41 27° S 20:15:05 26° SSE
ASTEX 1 3.3 20:12:36 10° NNE 20:17:30 63° E 20:22:19 10° S
H-2A R/B 2.9 20:17:06 39° ESE 20:18:05 50° ENE 20:21:51 10° N
Cosmos 839 Rocket 4.3 20:11:54 10° NNW 20:19:36 65° NE 20:23:23 27° SE
Cosmos 1943 Rocket 3.0 20:15:05 10° N 20:20:05 32° NE 20:21:11 29° ENE
Cosmos 1743 Rocket 3.9 20:16:03 10° NNW 20:20:28 66° W 20:24:48 10° S
Resurs 1-3 3.7 20:16:56 10° S 20:21:19 78° WSW 20:25:43 10° NNW
ALOS 2.1 20:20:14 14° SSE 20:24:14 80° ENE 20:28:55 10° N
Cosmos 2251 Rocket 3.8 20:22:00 10° S 20:26:51 40° ESE 20:31:44 10° NE
Cosmos 2369 Rocket 2.1 20:22:08 10° NNW 20:27:49 78° ENE 20:31:02 27° SSE
Helios 1B rocket 3.1 20:25:13 10° N 20:29:16 56° WNW 20:33:17 10° SSW
Resurs 01 Rocket 2.6 20:25:10 10° S 20:29:28 49° W 20:33:49 10° NNW
Cosmos 1943 3.0 20:23:58 10° SSW 20:29:34 76° ESE 20:35:12 10° NNE
CENTAUR R/B 2.4 20:26:03 10° SSW 20:32:05 81° ESE 20:38:56 10° NE
SL-8 R/B 3.9 20:27:34 10° WSW 20:32:20 69° NNW 20:34:18 35° NE
Gbstr 26 Del rocket 3.2 20:29:49 10° SW 20:34:17 83° SE 20:36:28 36° ENE
ISS -2.6 20:34:31 10° WSW 20:37:40 48° NNW 20:37:49 47° NNW
Cosmos 2263 4.1 20:33:50 10° NNW 20:39:38 71° ENE 20:41:31 43° SE
Cosmos 1331 Rocket 4.1 20:34:24 10° N 20:39:38 54° ENE 20:40:20 50° E
BREEZE-M DEB (TANK) 3.5 20:27:38 10° WNW 20:40:06 69° N 20:41:39 44° ENE
Cosmos 1733 3.5 20:36:56 10° SSW 20:40:46 67° W 20:44:38 10° N
ERBS 3.9 20:42:18 10° NNW 20:44:32 28° N 20:44:32 28° N
Cosmos 1470 3.9 20:44:16 10° SSW 20:47:59 44° WNW 20:51:43 10° N
Cosmos 1674 4.2 20:44:33 10° NNW 20:48:10 37° W 20:51:28 12° SSW
Cosmos 2279 Rocket 4.0 20:48:01 42° SE 20:49:45 56° E 20:55:47 10° NNE
GP-B 3.0 20:47:35 10° N 20:52:03 85° W 20:52:57 57° SSW
Cosmos 2058 3.7 20:48:57 10° N 20:51:47 41° NNE 20:51:47 41° NNE
H-2A R/B 4.4 21:03:11 14° NNE 21:03:11 14° NNE 21:03:59 10° NNE
Cosmos 2151 3.3 20:57:13 10° NNW 21:01:24 62° W 21:01:36 61° WSW
ATLAS 5 CENTAUR R/B 4.4 21:00:19 10° W 21:03:54 19° NNW 21:07:43 10° NNE
Envisat 3.7 21:05:36 40° NNE 21:05:36 40° NNE 21:09:11 10° N
SL-24 R/B - RUBIN 2 4.4 20:58:31 10° NNW 21:05:14 88° ENE 21:06:20 64° SE
Cosmos 2221 4.4 21:09:42 22° N 21:09:42 22° N 21:11:16 10° N
Cosmos 1655 Rocket 3.9 21:02:09 10° N 21:08:25 89° W 21:10:10 51° S
Cosmos 2026 Rocket 3.9 21:02:53 10° N 21:09:01 80° W 21:11:21 41° S
Meteor 2-1 Rocket 4.1 21:08:30 66° SSE 21:09:20 81° E 21:15:15 10° NNE
Cosmos 1428 Rocket 4.3 21:04:47 10° N 21:11:05 71° E 21:11:17 70° E
Meteor 1-16 Rocket 4.2 21:06:34 10° SSW 21:11:51 70° W 21:17:11 10° N
USA 215 3.4 21:09:20 22° NE 21:13:44 72° NW 21:20:13 10° WSW
Meteor 2-20 4.4 21:24:19 10° N 21:30:11 81° NNW 21:30:11 81° NNW
ERS-1 Rocket 3.9 21:35:50 45° NNW 21:35:50 45° NNW 21:39:21 10° NNW
Cosmos 1943 Rocket 3.5 21:58:42 10° NW 22:02:44 35° WNW 22:02:44 35° WNW
CENTAUR R/B 4.4 22:18:19 10° W 22:23:37 26° NNW 22:29:28 10° NNE
